Weather History for Clintonville, WI

Change the Weather History Date:

Monday, August 18, 2014

  Actual Average Record
Temperature  
Mean Temperature 62 °F -  
Max Temperature 71 °F 79 °F 97 °F (1955)
Min Temperature 53 °F 54 °F 41 °F (1977)
Degree Days  
Heating Degree Days 3    
Growing Degree Days 12 (Base 50)    
Moisture  
Dew Point 60 °F    
Average Humidity 93    
Maximum Humidity 100    
Minimum Humidity 73    
Precipitation  
Precipitation 1.30 in - - ()
Sea Level Pressure  
Sea Level Pressure 29.84 in    
Wind  
Wind Speed 2 mph (South)    
Max Wind Speed 14 mph    
Max Gust Speed -    
Visibility 8 miles    
Events Rain    
Averages and records for this station are not official NWS values.
T = Trace of Precipitation, MM = Missing Value Source: NWS Daily Summary

Daily Weather History Graph

Daily Weather History Graph

Search for Another Location

Airport:

Trip Planner

Search our weather history database for the weather conditions in past years. The results will help you decide how hot, cold, wet, or windy it might be!

Date:

Astronomy

Aug. 18, 2014 Rise Set
Actual Time 6:01 AM CDT 7:55 PM CDT
Civil Twilight 5:29 AM CDT 8:26 PM CDT
Nautical Twilight 4:51 AM CDT 9:05 PM CDT
Astronomical Twilight 4:09 AM CDT 9:46 PM CDT
Moon 12:05 AM CDT (8/18) 3:02 PM CDT (8/18)
Length of Visible Light 14h 57m
Length of Day
13h 54m
Last Quarter, 38% of the Moon is Illuminated
Aug 18
Last Quarter
Aug 25
New
Sep 2
First Quarter
Sep 8
Full
Sep 15
Last Quarter

Hourly Weather History & Observations

Time (CDT) Temp. Dew Point Humidity Pressure Visibility Wind Dir Wind Speed Gust Speed Precip Events Conditions
12:15 AM 55.4 °F 53.6 °F 94% 29.98 in 10.0 mi Calm Calm - N/A   Clear
12:35 AM 55.4 °F 53.6 °F 94% 29.98 in 10.0 mi Calm Calm - N/A   Clear
12:55 AM 53.6 °F 51.8 °F 94% 29.97 in 10.0 mi Calm Calm - N/A   Clear
1:15 AM 53.6 °F 53.6 °F 100% 29.97 in 10.0 mi Calm Calm - N/A   Scattered Clouds
1:35 AM 55.4 °F 53.6 °F 94% 29.95 in 10.0 mi Calm Calm - N/A   Scattered Clouds
1:55 AM 53.6 °F 53.6 °F 100% 29.94 in 10.0 mi Calm Calm - N/A   Clear
2:15 AM 53.6 °F 51.8 °F 94% 29.93 in 5.0 mi Calm Calm - N/A   Clear
2:35 AM 53.6 °F 53.6 °F 100% 29.94 in 10.0 mi Calm Calm - N/A   Clear
2:55 AM 53.6 °F 53.6 °F 100% 29.94 in 10.0 mi Calm Calm - N/A   Mostly Cloudy
3:15 AM 55.4 °F 53.6 °F 94% 29.94 in 10.0 mi Calm Calm - N/A   Overcast
3:35 AM 55.4 °F 53.6 °F 94% 29.93 in 10.0 mi Calm Calm - N/A   Overcast
3:55 AM 55.4 °F 53.6 °F 94% 29.94 in 10.0 mi Calm Calm - N/A   Overcast
4:15 AM 55.4 °F 53.6 °F 94% 29.93 in 10.0 mi Calm Calm - N/A   Overcast
4:35 AM 55.4 °F 53.6 °F 94% 29.94 in 10.0 mi Calm Calm - N/A   Overcast
4:55 AM 55.4 °F 53.6 °F 94% 29.93 in 7.0 mi Calm Calm - N/A   Overcast
5:15 AM 55.4 °F 55.4 °F 100% 29.93 in 7.0 mi Calm Calm - N/A   Overcast
5:35 AM 55.4 °F 55.4 °F 100% 29.92 in 7.0 mi ENE 3.5 mph - N/A   Overcast
5:55 AM 55.4 °F 55.4 °F 100% 29.93 in 10.0 mi Calm Calm - N/A   Overcast
6:15 AM 55.4 °F 55.4 °F 100% 29.91 in 7.0 mi ESE 3.5 mph - N/A Rain Light Rain
6:35 AM 55.4 °F 55.4 °F 100% 29.90 in 7.0 mi East 4.6 mph - N/A Rain Light Rain
6:55 AM 55.4 °F 55.4 °F 100% 29.90 in 5.0 mi Calm Calm - 0.02 in Rain Light Rain
7:15 AM 55.4 °F 55.4 °F 100% 29.90 in 7.0 mi Calm Calm - 0.01 in Rain Light Rain
7:35 AM 55.4 °F 55.4 °F 100% 29.91 in 7.0 mi Calm Calm - 0.02 in Rain Light Rain
7:55 AM 57.2 °F 55.4 °F 94% 29.90 in 7.0 mi Calm Calm - 0.02 in Rain Light Rain
8:15 AM 57.2 °F 55.4 °F 94% 29.90 in 4.0 mi Calm Calm - 0.05 in Rain Light Rain
8:35 AM 59.0 °F 57.2 °F 94% 29.89 in 5.0 mi East 4.6 mph - 0.06 in Rain Rain
8:55 AM 59.0 °F 57.2 °F 94% 29.89 in 5.0 mi SE 4.6 mph - 0.07 in Rain Rain
9:15 AM 59.0 °F 57.2 °F 94% 29.89 in 4.0 mi Calm Calm - 0.10 in Rain Light Rain
9:35 AM 59.0 °F 57.2 °F 94% 29.88 in 5.0 mi ESE 4.6 mph - 0.11 in Rain Light Rain
9:55 AM 59.0 °F 59.0 °F 100% 29.87 in 5.0 mi SE 3.5 mph - 0.11 in   Overcast
10:15 AM 59.0 °F 59.0 °F 100% 29.87 in 3.0 mi SE 4.6 mph - 0.04 in Rain Heavy Rain
10:35 AM 60.8 °F 59.0 °F 94% 29.86 in 5.0 mi SSE 5.8 mph - 0.05 in   Overcast
10:55 AM 60.8 °F 60.8 °F 100% 29.86 in 7.0 mi SSE 3.5 mph - 0.05 in   Overcast
11:15 AM 62.6 °F 60.8 °F 94% 29.85 in 10.0 mi SSE 5.8 mph - N/A   Overcast
11:35 AM 62.6 °F 60.8 °F 94% 29.85 in 10.0 mi SE 6.9 mph - N/A   Overcast
11:55 AM 64.4 °F 62.6 °F 94% 29.85 in 10.0 mi SSE 5.8 mph - N/A   Overcast
12:15 PM 66.2 °F 62.6 °F 88% 29.84 in 10.0 mi SSE 6.9 mph - N/A   Overcast
12:35 PM 68.0 °F 62.6 °F 83% 29.83 in 10.0 mi South 9.2 mph - N/A   Overcast
12:55 PM 69.8 °F 62.6 °F 78% 29.83 in 10.0 mi SSE 6.9 mph - N/A   Overcast
1:20 PM 71.6 °F 62.6 °F 73% 29.82 in 10.0 mi South 10.4 mph - N/A   Overcast
1:35 PM 71.6 °F 62.6 °F 73% 29.81 in 10.0 mi SSE 8.1 mph - N/A   Overcast
1:55 PM 71.6 °F 62.6 °F 73% 29.81 in 10.0 mi SSW 6.9 mph - N/A   Overcast
2:15 PM 71.6 °F 62.6 °F 73% 29.80 in 10.0 mi South 5.8 mph - N/A   Overcast
2:35 PM 71.6 °F 62.6 °F 73% 29.79 in 10.0 mi SSE 3.5 mph - N/A   Overcast
2:55 PM 71.6 °F 64.4 °F 78% 29.79 in 10.0 mi Calm Calm - N/A   Overcast
3:15 PM 71.6 °F 64.4 °F 78% 29.78 in 10.0 mi Calm Calm - N/A   Overcast
3:35 PM 69.8 °F 64.4 °F 83% 29.77 in 10.0 mi Calm Calm - N/A   Overcast
3:55 PM 69.8 °F 66.2 °F 88% 29.77 in 5.0 mi Calm Calm - N/A Rain Light Rain
4:15 PM 68.0 °F 66.2 °F 94% 29.77 in 0.8 mi WNW 3.5 mph - 0.15 in Rain Rain
4:35 PM 68.0 °F 66.2 °F 94% 29.76 in 3.0 mi West 3.5 mph - 0.16 in Rain Rain
4:55 PM 68.0 °F 68.0 °F 100% 29.78 in 3.0 mi WSW 5.8 mph - 0.18 in Rain Light Rain
5:15 PM 66.2 °F 64.4 °F 94% 29.74 in 7.0 mi Calm Calm - 0.01 in Rain Light Rain
5:35 PM 66.2 °F 64.4 °F 94% 29.74 in 10.0 mi Calm Calm - 0.01 in   Mostly Cloudy
5:55 PM 66.2 °F 64.4 °F 94% 29.75 in 10.0 mi SE 3.5 mph - 0.01 in Rain Light Rain
6:15 PM 66.2 °F 64.4 °F 94% 29.76 in 10.0 mi Calm Calm - N/A   Light Drizzle
6:35 PM 66.2 °F 64.4 °F 94% 29.79 in 3.0 mi NW 12.7 mph - 0.28 in Rain Heavy Rain
6:55 PM 64.4 °F 64.4 °F 100% 29.77 in 1.2 mi South 3.5 mph - 0.55 in Rain Heavy Rain
7:15 PM 64.4 °F 64.4 °F 100% 29.74 in 2.0 mi SSE 13.8 mph - 0.16 in Rain Heavy Rain
7:35 PM 64.4 °F 64.4 °F 100% 29.72 in 7.0 mi SE 8.1 mph - 0.20 in Rain Rain
7:55 PM 64.4 °F 62.6 °F 94% 29.72 in 10.0 mi SSE 5.8 mph - 0.21 in Rain Light Rain
8:15 PM 64.4 °F 62.6 °F 94% 29.71 in 10.0 mi WSW 3.5 mph - N/A Rain Light Rain
8:35 PM 64.4 °F 62.6 °F 94% 29.72 in 10.0 mi SW 4.6 mph - 0.01 in Rain Light Rain
8:55 PM 64.4 °F 62.6 °F 94% 29.72 in 10.0 mi SSW 4.6 mph - 0.01 in   Clear
9:15 PM 64.4 °F 62.6 °F 94% 29.72 in 10.0 mi South 6.9 mph - N/A   Clear
9:35 PM 64.4 °F 62.6 °F 94% 29.72 in 10.0 mi SSW 9.2 mph - N/A   Clear
9:55 PM 64.4 °F 62.6 °F 94% 29.72 in 10.0 mi SSW 6.9 mph - N/A   Clear
10:15 PM 64.4 °F 62.6 °F 94% 29.71 in 10.0 mi South 8.1 mph - N/A   Scattered Clouds
10:35 PM 64.4 °F 62.6 °F 94% 29.71 in 10.0 mi South 4.6 mph - N/A   Clear
11:15 PM 64.4 °F 62.6 °F 94% 29.71 in 10.0 mi SSW 9.2 mph - N/A   Mostly Cloudy
11:55 PM 62.6 °F 62.6 °F 100% 29.67 in 10.0 mi SSE 9.2 mph - 0.07 in Rain Light Rain